STARLINK-1536, 46070

Orbit data source: Space-Track

STARLINK-1536, 46070 is a payload satellite owned by SpaceX/Seattle (US) in LEO that was launched on Fri, 07 Aug 2020 UTC via an FALCON 9 launch vehicle from the Air Force Eastern Test Range (AFETR). Payload-class satellites include a variety of spacecraft equipped with specific instruments for various scientific and technological missions. These include communications satellites like Starlink; space stations such as the ISS; scientific satellites like the Hubble; Earth observation satellites from companies like Planet Labs, Umbra, and HawkEye 360; GPS; miniature CubeSats for education and research; and military/defense satellites.

Loading next visibility...
Identifier
46070, 2020-055AV
Orbit
LEO
Country
Flag of USUS
Related business
Manufacturer
SpaceX/Seattle
Mission
Operational Commercial Communications
Bus & Motor
STARLINK, Unknown motor
Mass
260 kg wet, ~248 kg dry
Launch date (UTC)
2020-08-07 (6 years ago)
Launch vehicle
FALCON 9
Launch site
Air Force Eastern Test Range (AFETR)
Object type
Payload
Rocket body
Debris
Shape & HBR
Box + 1 Pan, 10.1 m
Radar Cross Section
13.562 m², Large (>1 m²)

Expand to show TLE details & history
Last TLE update: 17 hours ago

TLE from 17 hours ago
0 STARLINK-1536
1 46070U 20055AV  26171.21747271 -.00000523  00000-0 -50848-5 0  9999
2 46070  53.1594 344.7898 0001573  82.0011 278.1168 15.31696932324947
Epoch: 2026-06-20T05:13Z
TLE epoch observation values (Epoch: 2026-06-20T05:13:09.642Z)
Latitude
-0.00007°
Longitude
-1.93569°
Altitude
471.497 km
Speed
7.632 km/s
True Right ascension
22h 59m 09s
True Declination
0° 00' 00"
Sunlit
Object was in daylight at epoch
Visualization orbit readout
Latitude
Unknown
Longitude
Unknown
Altitude
Unknown
Speed
Unknown
Apparent Right ascension
Unknown
Apparent Declination
Unknown
Sunlit
N/A
Visualization observer readout
Local Sidereal Time
09:36:56
Azimuth
Unknown
Elevation
Unknown
Doppler factor
Unknown
Orbital elements
Apogee altitude
472.083 km
Perigee altitude
469.928 km
Semi-major axis
6,849.143 km
Eccentricity
0.00016
Inclination
53.1594°
RAAN
344.7898°
Arg. of periapsis
82.0011°
True anomaly
278.09895°
Mean anomaly
278.1168°
Eccentric anomaly
278.10788°
Mean motion
3.82903 °/min
Orbital period
94.02 mins
BSTAR
-0.0000050848
Loading maneuver chart data...
Computing Atmospheric mass density...

Documentation

Showing up to 5 results
|